[[{"header":{"parameterUnit":"m.s-1","parameterCategory":1,"la1":30.2992,"la2":30.254,"lo1":-89.0895,"lo2":-89.0443,"dy":0.0025,"dx":0.0025,"nx":19,"ny":19,"refTime":"2026-04-04T21:00:00:Z","depth":0,"parameterNumber":2,"parameterNumberName":"U-component_of_WINDS"},"data":[0,0,0,-0.4926,-0.4926,-0.4957,-0.4957,-0.4996,-0.4996,0,0,0,0,0,0,0,0,0,0,0,-0.4917,-0.4917,-0.4925,-0.4926,-0.4957,-0.4957,-0.4996,-0.4996,0,0,0,0,0,0,0,0,0,0,0,-0.4917,-0.4917,-0.4917,-0.4926,-0.4957,-0.4957,-0.4996,-0.4973,0,0,0,0,0,0,0,0,0,0,-0.4943,-0.4935,-0.4917,-0.4917,-0.4927,-0.4957,-0.4957,-0.4972,-0.4974,-0.4982,0,-0.4989,0,-0.4993,-0.4999,-0.4999,0,0,0,-0.4926,-0.4933,-0.4941,-0.4917,-0.4927,-0.4957,-0.4943,-0.4973,-0.4976,-0.4985,-0.499,-0.4991,-0.4994,-0.4999,-0.4999,-0.5045,-0.5045,0,0,-0.4924,-0.4922,-0.4939,-0.4943,-0.4938,-0.4942,-0.4944,-0.4975,-0.4979,-0.499,-0.4992,-0.4995,-0.4999,-0.5,-0.5045,-0.5045,0,0,0,-0.492,-0.4921,-0.4928,-0.4941,-0.4947,-0.4943,-0.4945,-0.4978,-0.4981,-0.4993,-0.4995,-0.4999,-0.5,-0.5045,-0.5045,-0.5053,0,0,0,-0.4919,-0.4918,-0.4928,-0.4927,-0.4946,-0.4963,-0.4948,-0.4978,-0.4982,-0.4995,-0.5,-0.5,-0.5044,-0.5045,-0.5052,-0.5057,0,0,0,-0.4915,-0.4918,-0.4922,-0.4926,-0.494,-0.4962,-0.4967,-0.4979,-0.4983,-0.4999,-0.5,-0.5044,-0.5045,-0.5052,-0.5056,-0.5068,0,0,0,-0.491,-0.493,-0.4922,-0.4946,-0.4939,-0.4967,-0.4967,-0.4988,-0.5002,-0.5,-0.5044,-0.5045,-0.5051,-0.5055,-0.5067,-0.5077,-0.5081,0,0,-0.4934,-0.4933,-0.4946,-0.4941,-0.4969,-0.4963,-0.4993,-0.5008,-0.5012,-0.5034,-0.5035,-0.5052,-0.5056,-0.5068,-0.5106,-0.5109,0,0,0,-0.4953,-0.4963,-0.4971,-0.4984,-0.4996,-0.5007,-0.5018,-0.5023,-0.5042,-0.5023,-0.506,-0.5063,-0.5069,-0.5074,-0.5077,-0.5083,-0.5047,-0.5047,-0.5047,-0.4984,-0.4987,-0.501,-0.5016,-0.5029,-0.504,-0.5051,-0.506,-0.506,-0.5069,-0.5075,-0.5097,-0.5103,-0.5105,-0.5111,-0.5081,-0.5081,-0.5081,-0.5081,-0.5019,-0.5033,-0.5032,-0.5053,-0.5056,-0.5074,-0.5085,-0.5084,-0.5101,-0.5093,-0.5099,-0.509,-0.5108,-0.5114,-0.5082,-0.5081,-0.5081,-0.5081,-0.5081,-0.5039,-0.5046,-0.5052,-0.5071,-0.5085,-0.5091,-0.5107,-0.511,-0.5112,-0.5119,-0.5125,-0.5125,-0.5124,-0.5122,-0.5122,-0.5122,-0.5122,-0.5122,-0.5122,-0.5057,-0.5064,-0.5077,-0.5091,-0.5099,-0.511,-0.5121,-0.5129,-0.5139,-0.5139,-0.5139,-0.5138,-0.511,-0.5102,-0.5123,-0.5123,-0.5123,-0.5123,-0.5123,-0.5091,-0.5083,-0.5104,-0.5112,-0.5127,-0.5141,-0.5144,-0.516,-0.5167,-0.5175,-0.5172,-0.5151,-0.515,-0.5148,-0.5142,-0.5172,-0.5172,-0.5172,-0.5172,-0.5107,-0.5107,-0.5127,-0.514,-0.5153,-0.5157,-0.518,-0.5188,-0.5195,-0.5199,-0.5195,-0.5188,-0.5185,-0.5186,-0.5183,-0.5177,-0.5215,-0.5215,-0.5215,-0.5127,-0.5128,-0.5147,-0.5153,-0.5165,-0.5176,-0.5197,-0.5211,-0.5218,-0.5217,-0.5203,-0.5201,-0.5188,-0.5184,-0.5183,-0.5178,-0.5167,0,0]},{"header":{"parameterUnit":"m.s-1","parameterCategory":1,"la1":30.2992,"la2":30.254,"lo1":-89.0895,"lo2":-89.0443,"dy":0.0025,"dx":0.0025,"nx":19,"ny":19,"refTime":"2026-04-04T21:00:00:Z","depth":0,"parameterNumber":3,"parameterNumberName":"V-component_of_WINDS"},"data":[0,0,0,3.5102,3.5107,3.5354,3.5355,3.5652,3.5654,0,0,0,0,0,0,0,0,0,0,0,3.5019,3.5021,3.5102,3.5108,3.5354,3.5355,3.5651,3.5654,0,0,0,0,0,0,0,0,0,0,0,3.5018,3.502,3.5022,3.5108,3.5353,3.5355,3.5651,3.5471,0,0,0,0,0,0,0,0,0,0,3.5235,3.5148,3.502,3.5022,3.511,3.5353,3.5355,3.5463,3.5482,3.5533,0,3.5576,0,3.562,3.5673,3.5674,0,0,0,3.5115,3.5132,3.5208,3.5023,3.5112,3.5353,3.5245,3.5474,3.5496,3.5559,3.5581,3.5592,3.5625,3.5675,3.5677,3.5949,3.595,0,0,3.5101,3.5057,3.5192,3.5222,3.5184,3.5237,3.5252,3.5488,3.5508,3.5582,3.5599,3.563,3.5677,3.5679,3.5948,3.5949,0,0,0,3.5057,3.5047,3.5118,3.5209,3.5255,3.5244,3.5262,3.5497,3.5524,3.5603,3.5633,3.5679,3.5682,3.5947,3.5948,3.5954,0,0,0,3.5049,3.5022,3.5112,3.5087,3.525,3.5379,3.5265,3.5508,3.5536,3.5632,3.5679,3.5685,3.5946,3.5948,3.5952,3.5964,0,0,0,3.5006,3.5017,3.505,3.5085,3.5189,3.5377,3.5417,3.5515,3.5554,3.5675,3.5686,3.5945,3.5947,3.595,3.5961,3.6025,0,0,0,3.4947,3.5049,3.5049,3.5175,3.5187,3.5378,3.5416,3.556,3.5664,3.568,3.5946,3.5948,3.5949,3.5959,3.6023,3.6072,3.6089,0,0,3.5052,3.506,3.5138,3.5145,3.5326,3.5344,3.5526,3.5661,3.5711,3.5866,3.5874,3.5953,3.5961,3.6025,3.6192,3.6205,0,0,0,3.5156,3.5212,3.5269,3.5367,3.5474,3.5567,3.5679,3.573,3.5864,3.5782,3.5994,3.6,3.6039,3.6065,3.6076,3.6113,3.5958,3.5958,3.5957,3.5241,3.5302,3.5435,3.5526,3.5621,3.5737,3.5819,3.5907,3.5938,3.5987,3.6034,3.6129,3.6157,3.6166,3.6204,3.6064,3.6064,3.6064,3.6064,3.5401,3.549,3.5532,3.5677,3.5741,3.5862,3.5978,3.5997,3.612,3.6098,3.6135,3.6107,3.6178,3.6214,3.6065,3.6065,3.6065,3.6065,3.6065,3.5464,3.5518,3.5579,3.5729,3.5837,3.5925,3.6042,3.6095,3.6145,3.6182,3.6239,3.6239,3.6247,3.6206,3.6206,3.6206,3.6207,3.6207,3.6207,3.5507,3.5576,3.5669,3.5793,3.5864,3.5964,3.6083,3.6155,3.6247,3.6276,3.6277,3.6305,3.6173,3.6139,3.6212,3.6211,3.6211,3.621,3.621,3.5649,3.5626,3.5769,3.5841,3.5992,3.6098,3.6164,3.6305,3.6372,3.6428,3.6449,3.6342,3.6354,3.6346,3.6319,3.6434,3.6434,3.6434,3.6434,3.5703,3.5715,3.5876,3.5987,3.6102,3.6178,3.6339,3.6432,3.6525,3.6571,3.6561,3.6529,3.6518,3.6537,3.6525,3.6501,3.666,3.666,3.666,3.5795,3.5821,3.5948,3.6041,3.6164,3.6268,3.6421,3.6547,3.6648,3.6671,3.6608,3.6598,3.6547,3.6527,3.6548,3.6528,3.6485,0,0]}]]